When you browse on this site, cookies collect data to enhance your experience and personalize the content and advertising you see.
Visit our Privacy Policy to learn more. By continuing to use the site, you agree to this use of cookies and data.
  • In Schweiz
  • Länderverzeichnis
  • Für 7 Tage
  • Wassertemperatur
  • Satellitenkarten
  • Wetterkarte
  • Widgets
  • user-avatar
    Anmelden

    Stündliche Wetter Karakol

    Heute, 17 Juni, Montag

    Zeit Temperatur Niederschläge Wind Luftdruck Luftfeuchtigkeit
    00:00 +12°C° 0 mm 2 m/S 605 mmHg 65%
    01:00 +11°C° 0 mm 1 m/S 605 mmHg 64%
    02:00 +11°C° 0 mm 1 m/S 605 mmHg 62%
    03:00 +11°C° 0 mm 1 m/S 605 mmHg 62%
    04:00 +11°C° 0 mm 1 m/S 605 mmHg 62%
    05:00 +12°C° 0 mm 2 m/S 605 mmHg 59%
    06:00 +14°C° 0 mm 1 m/S 606 mmHg 55%
    07:00 +15°C° 0 mm 1 m/S 606 mmHg 51%
    08:00 +18°C° 0 mm 1 m/S 607 mmHg 48%
    09:00 +18°C° 0 mm 2 m/S 607 mmHg 45%
    10:00 +19°C° 0 mm 2 m/S 607 mmHg 42%
    11:00 +20°C° 0 mm 3 m/S 607 mmHg 40%
    12:00 +21°C° 0.2 mm 3 m/S 607 mmHg 39%
    13:00 +21°C° 0.2 mm 3 m/S 607 mmHg 37%
    14:00 +21°C° 0.2 mm 3 m/S 607 mmHg 35%
    15:00 +21°C° 0.2 mm 3 m/S 607 mmHg 37%
    16:00 +20°C° 0.2 mm 3 m/S 607 mmHg 40%
    17:00 +20°C° 0.2 mm 3 m/S 606 mmHg 42%
    18:00 +18°C° 0.1 mm 2 m/S 606 mmHg 51%
    19:00 +16°C° 0.1 mm 2 m/S 605 mmHg 60%
    20:00 +13°C° 0.1 mm 2 m/S 605 mmHg 68%
    21:00 +13°C° 0 mm 2 m/S 605 mmHg 65%
    22:00 +13°C° 0 mm 1 m/S 605 mmHg 62%
    23:00 +13°C° 0 mm 1 m/S 605 mmHg 58%

    Morgen, 18 Juni, Dienstag

    Zeit Temperatur Niederschläge Wind Luftdruck Luftfeuchtigkeit
    00:00 +13°C° 0 mm 1 m/S 605 mmHg 59%
    01:00 +12°C° 0 mm 1 m/S 604 mmHg 59%
    02:00 +12°C° 0 mm 1 m/S 604 mmHg 59%
    03:00 +12°C° 0 mm 1 m/S 604 mmHg 58%
    04:00 +12°C° 0 mm 1 m/S 604 mmHg 57%
    05:00 +12°C° 0 mm 1 m/S 604 mmHg 56%
    06:00 +14°C° 0 mm 1 m/S 605 mmHg 53%
    07:00 +16°C° 0 mm 1 m/S 605 mmHg 50%
    08:00 +18°C° 0 mm 2 m/S 606 mmHg 46%
    09:00 +19°C° 0.1 mm 2 m/S 606 mmHg 45%
    10:00 +20°C° 0.1 mm 3 m/S 606 mmHg 43%
    11:00 +21°C° 0.1 mm 3 m/S 606 mmHg 42%
    12:00 +21°C° 0.4 mm 3 m/S 606 mmHg 42%
    13:00 +21°C° 0.4 mm 3 m/S 606 mmHg 42%
    14:00 +22°C° 0.4 mm 3 m/S 606 mmHg 42%
    15:00 +21°C° 0.3 mm 3 m/S 606 mmHg 43%
    16:00 +20°C° 0.3 mm 3 m/S 606 mmHg 45%
    17:00 +20°C° 0.3 mm 2 m/S 606 mmHg 46%
    18:00 +18°C° 0.1 mm 2 m/S 606 mmHg 52%
    19:00 +16°C° 0.1 mm 2 m/S 606 mmHg 58%
    20:00 +15°C° 0.1 mm 2 m/S 606 mmHg 65%
    21:00 +14°C° 0.2 mm 2 m/S 605 mmHg 70%
    22:00 +13°C° 0.2 mm 2 m/S 605 mmHg 75%
    23:00 +13°C° 0.2 mm 2 m/S 605 mmHg 81%

    übermorgen, 19 Juni, Mittwoch

    Zeit Temperatur Niederschläge Wind Luftdruck Luftfeuchtigkeit
    00:00 +12°C° 0.1 mm 2 m/S 605 mmHg 82%
    01:00 +12°C° 0.1 mm 1 m/S 604 mmHg 84%
    02:00 +11°C° 0.1 mm 1 m/S 604 mmHg 85%
    03:00 +12°C° 0.1 mm 1 m/S 604 mmHg 84%
    04:00 +12°C° 0.1 mm 1 m/S 604 mmHg 83%
    05:00 +12°C° 0.1 mm 1 m/S 604 mmHg 82%
    06:00 +13°C° 0.2 mm 1 m/S 605 mmHg 76%
    07:00 +15°C° 0.2 mm 1 m/S 605 mmHg 70%
    08:00 +16°C° 0.2 mm 1 m/S 606 mmHg 65%
    09:00 +17°C° 0.2 mm 2 m/S 606 mmHg 59%
    10:00 +18°C° 0.2 mm 2 m/S 606 mmHg 54%
    11:00 +20°C° 0.2 mm 2 m/S 606 mmHg 49%
    12:00 +20°C° 0.3 mm 2 m/S 606 mmHg 48%
    13:00 +20°C° 0.3 mm 2 m/S 606 mmHg 47%
    14:00 +21°C° 0.3 mm 2 m/S 606 mmHg 46%
    15:00 +20°C° 0.5 mm 2 m/S 606 mmHg 48%
    16:00 +20°C° 0.5 mm 2 m/S 606 mmHg 51%
    17:00 +19°C° 0.5 mm 2 m/S 606 mmHg 53%
    18:00 +18°C° 0.2 mm 2 m/S 605 mmHg 61%
    19:00 +16°C° 0.2 mm 1 m/S 605 mmHg 68%
    20:00 +14°C° 0.2 mm 1 m/S 604 mmHg 75%
    21:00 +14°C° 0.1 mm 1 m/S 604 mmHg 76%
    22:00 +13°C° 0.1 mm 1 m/S 605 mmHg 77%
    23:00 +13°C° 0.1 mm 1 m/S 605 mmHg 78%

    20 Juni, Donnerstag

    Zeit Temperatur Niederschläge Wind Luftdruck Luftfeuchtigkeit
    00:00 +13°C° 0.2 mm 1 m/S 605 mmHg 80%
    01:00 +13°C° 0.2 mm 1 m/S 605 mmHg 82%
    02:00 +13°C° 0.2 mm 1 m/S 605 mmHg 84%
    03:00 +13°C° 0.1 mm 1 m/S 605 mmHg 84%
    04:00 +13°C° 0.1 mm 1 m/S 605 mmHg 85%
    05:00 +12°C° 0.1 mm 0 m/S 605 mmHg 85%
    06:00 +13°C° 0.1 mm 1 m/S 605 mmHg 82%
    07:00 +14°C° 0.1 mm 1 m/S 606 mmHg 80%
    08:00 +15°C° 0.1 mm 1 m/S 606 mmHg 77%
    09:00 +16°C° 0.3 mm 1 m/S 607 mmHg 71%
    10:00 +19°C° 0.3 mm 1 m/S 607 mmHg 64%
    11:00 +19°C° 0.3 mm 2 m/S 607 mmHg 58%
    12:00 +19°C° 0.3 mm 2 m/S 607 mmHg 56%
    13:00 +20°C° 0.3 mm 2 m/S 607 mmHg 53%
    14:00 +20°C° 0.3 mm 2 m/S 607 mmHg 50%
    15:00 +20°C° 0.2 mm 2 m/S 607 mmHg 51%
    16:00 +20°C° 0.2 mm 3 m/S 607 mmHg 52%
    17:00 +19°C° 0.2 mm 3 m/S 607 mmHg 53%
    18:00 +18°C° 0 mm 2 m/S 606 mmHg 61%
    19:00 +16°C° 0 mm 2 m/S 606 mmHg 69%
    20:00 +14°C° 0 mm 2 m/S 605 mmHg 77%
    21:00 +14°C° 0 mm 2 m/S 605 mmHg 76%
    22:00 +13°C° 0 mm 1 m/S 605 mmHg 75%
    23:00 +13°C° 0 mm 1 m/S 605 mmHg 75%

    21 Juni, Freitag

    Zeit Temperatur Niederschläge Wind Luftdruck Luftfeuchtigkeit
    00:00 +13°C° 0 mm 1 m/S 605 mmHg 74%
    01:00 +12°C° 0 mm 1 m/S 605 mmHg 74%
    02:00 +12°C° 0 mm 1 m/S 605 mmHg 73%
    03:00 +12°C° 0 mm 1 m/S 605 mmHg 72%
    04:00 +13°C° 0 mm 1 m/S 605 mmHg 70%
    05:00 +12°C° 0 mm 0 m/S 605 mmHg 69%
    06:00 +15°C° 0 mm 1 m/S 606 mmHg 63%
    07:00 +18°C° 0 mm 1 m/S 607 mmHg 58%
    08:00 +19°C° 0 mm 1 m/S 607 mmHg 52%
    09:00 +19°C° 0.1 mm 2 m/S 608 mmHg 50%
    10:00 +20°C° 0.1 mm 2 m/S 608 mmHg 47%
    11:00 +21°C° 0.1 mm 3 m/S 608 mmHg 45%
    12:00 +22°C° 0.2 mm 3 m/S 608 mmHg 44%
    13:00 +22°C° 0.2 mm 3 m/S 608 mmHg 44%
    14:00 +22°C° 0.2 mm 3 m/S 607 mmHg 44%
    15:00 +22°C° 0.3 mm 3 m/S 607 mmHg 45%
    16:00 +21°C° 0.3 mm 3 m/S 607 mmHg 47%
    17:00 +21°C° 0.3 mm 2 m/S 607 mmHg 48%
    18:00 +19°C° 0.1 mm 2 m/S 606 mmHg 55%
    19:00 +17°C° 0.1 mm 2 m/S 606 mmHg 62%
    20:00 +15°C° 0.1 mm 2 m/S 605 mmHg 70%
    21:00 +15°C° 0 mm 2 m/S 605 mmHg 67%
    22:00 +14°C° 0 mm 1 m/S 605 mmHg 65%
    23:00 +14°C° 0 mm 1 m/S 605 mmHg 63%

    22 Juni, Samstag

    Zeit Temperatur Niederschläge Wind Luftdruck Luftfeuchtigkeit
    00:00 +14°C° 0 mm 1 m/S 605 mmHg 64%
    01:00 +13°C° 0 mm 1 m/S 604 mmHg 64%
    02:00 +13°C° 0 mm 1 m/S 604 mmHg 65%
    03:00 +13°C° 0 mm 1 m/S 604 mmHg 63%
    04:00 +13°C° 0 mm 1 m/S 604 mmHg 62%
    05:00 +14°C° 0 mm 1 m/S 604 mmHg 61%
    06:00 +16°C° 0 mm 1 m/S 605 mmHg 56%
    07:00 +19°C° 0 mm 1 m/S 606 mmHg 51%
    08:00 +21°C° 0 mm 1 m/S 607 mmHg 46%
    09:00 +21°C° 0.1 mm 2 m/S 607 mmHg 44%
    10:00 +22°C° 0.1 mm 3 m/S 607 mmHg 43%
    11:00 +22°C° 0.1 mm 3 m/S 608 mmHg 41%
    12:00 +24°C° 0.2 mm 3 m/S 608 mmHg 40%
    13:00 +24°C° 0.2 mm 3 m/S 608 mmHg 38%
    14:00 +24°C° 0.2 mm 3 m/S 608 mmHg 37%
    15:00 +24°C° 0.1 mm 3 m/S 607 mmHg 39%
    16:00 +22°C° 0.1 mm 3 m/S 607 mmHg 42%
    17:00 +21°C° 0.1 mm 4 m/S 607 mmHg 45%
    18:00 +20°C° 0.2 mm 3 m/S 607 mmHg 53%
    19:00 +18°C° 0.2 mm 3 m/S 607 mmHg 61%
    20:00 +16°C° 0.2 mm 2 m/S 607 mmHg 68%
    21:00 +15°C° 0.2 mm 2 m/S 607 mmHg 73%
    22:00 +15°C° 0.2 mm 2 m/S 607 mmHg 78%
    23:00 +14°C° 0.2 mm 2 m/S 607 mmHg 82%
    Mehr zeigen